Terminal Aerodrome Forecast
Issued by NWS Atlanta, GA

Home | Current Version | Previous Version | Text Only | Print | Product List | Glossary On
Versions: 1 2 3 4 5 6 7 8 9 10 11 12 13 14 15 16 17 18 19 20 21 22 23 24 25 26 27 28 29 30 31 32 33 34 35 36 37
957
FTAK31 PAJN 101501 AAA
TAFAHN
TAF AMD
PAHN 101501Z 1015/1112 30011KT P6SM -RASN OVC035
      TEMPO 1015/1018 30012KT 2SM -SN BR OVC025
     FM101800 30010KT P6SM VCSH BKN025 OVC040
     FM110400 VRB06KT P6SM -RA BKN025 OVC040
     FM111000 06010KT P6SM -RA BKN020 OVC030
      AMD LTD TO CLD VIS AND WIND=

USA.gov is the U.S. government's official web portal to all federal, state and local government web resources and services.